[[{"header":{"parameterUnit":"m.s-1","parameterCategory":1,"la1":30.2991,"la2":30.254,"lo1":-89.0895,"lo2":-89.0444,"dy":0.0017,"dx":0.0017,"nx":28,"ny":28,"refTime":"2025-04-06T09:00:00:Z","depth":0,"parameterNumber":2,"parameterNumberName":"U-component_of_WINDS"},"data":[0,0,0,0,0,0,0,0,0,0,0,0,0,0,0,0,0,0,0,0,0,0,0,0,0,0,0,0,0,0,0,0,0,0,0,0,0,0,0,0,0,0,0,0,0,0,0,0,0,0,0,0,0,0,0,0,0,0,3.3227,3.3227,0,3.3241,3.3241,3.3241,3.3188,3.3187,3.3185,3.3183,3.3197,3.3199,3.32,0,0,0,0,0,0,0,0,0,0,0,0,0,3.3155,3.3157,3.3227,3.3227,3.3228,3.3241,3.3241,3.3242,3.3188,3.3186,3.3185,3.3183,3.3196,3.3198,3.3201,0,0,0,0,0,0,0,0,0,0,0,0,0,3.3179,3.3157,3.3227,3.3203,3.3201,3.3241,3.3241,3.3242,3.3189,3.3186,3.3184,3.3182,3.3196,3.3198,3.3201,3.3265,0,0,3.3209,3.3211,0,0,0,0,0,0,0,0,3.3178,3.3182,3.3206,3.3204,3.3202,3.321,3.3221,3.325,3.3189,3.3193,3.3183,3.3181,3.3203,3.3205,3.3213,3.3266,3.3267,3.321,3.3211,3.3212,3.3213,0,0,0,0,0,0,0,3.3177,3.3181,3.3233,3.3207,3.3204,3.3191,3.3192,3.3226,3.3211,3.3193,3.3189,3.3191,3.3202,3.3211,3.3213,3.3267,3.321,3.3212,3.3214,3.3215,3.3375,3.3377,0,0,0,0,0,0,3.3178,3.318,3.3232,3.3233,3.3184,3.3194,3.3195,3.321,3.3211,3.3209,3.3193,3.3189,3.3207,3.321,3.3213,3.3289,3.3212,3.3215,3.3217,3.3372,3.3375,3.3378,0,0,0,0,0,0,3.3177,3.3183,3.3232,3.3206,3.3211,3.3198,3.3215,3.3212,3.322,3.3211,3.3208,3.3205,3.3205,3.3209,3.3253,3.3289,3.3216,3.3219,3.3369,3.3373,3.3377,3.3442,0,0,0,0,0,0,3.3175,3.3183,3.3207,3.3207,3.3212,3.3271,3.3218,3.3214,3.3225,3.322,3.3221,3.3219,3.3204,3.3249,3.3256,3.3292,3.3221,3.3366,3.3371,3.3376,3.3437,3.3448,3.3457,0,0,0,0,0,3.3172,3.3224,3.3209,3.3215,3.3242,3.3274,3.3277,3.3258,3.3229,3.3253,3.3247,3.3219,3.3284,3.3254,3.3261,3.3298,3.3364,3.337,3.3375,3.3432,3.3445,3.3457,0,0,0,0,0,0,3.3228,3.3224,3.3206,3.3259,3.3268,3.3264,3.3294,3.3273,3.3289,3.3283,3.3258,3.3259,3.3308,3.3307,3.3274,3.3361,3.3319,3.3326,3.336,3.3372,3.3382,3.3381,3.3223,0,0,0,0,0,3.3247,3.3273,3.3267,3.3315,3.332,3.3307,3.332,3.3305,3.3312,3.3315,3.3312,3.332,3.3342,3.3357,3.3377,3.3437,3.3437,3.3466,3.3476,3.3484,3.3491,3.3523,3.3536,3.3398,3.3398,3.3397,0,0,3.3286,3.3286,3.3304,3.3326,3.3331,3.3358,3.331,3.3341,3.3361,3.3319,3.3361,3.336,3.3367,3.3419,3.3442,3.342,3.353,3.3492,3.3499,3.3501,3.3531,3.3544,3.3556,3.3402,3.3401,3.34,0,0,3.337,3.3373,3.3413,3.3419,3.3427,3.3418,3.3428,3.3429,3.3427,3.3469,3.3438,3.3462,3.3501,3.3508,3.3516,3.3606,3.3581,3.3613,3.3666,3.3698,3.3709,3.3719,3.3751,3.3763,3.362,3.362,3.362,0,3.3417,3.3457,3.3437,3.347,3.3482,3.3446,3.3487,3.3494,3.3508,3.3516,3.3492,3.3541,3.3544,3.3597,3.362,3.3628,3.3638,3.3612,3.3709,3.3719,3.3727,3.3758,3.377,3.3624,3.3623,3.3623,3.3623,0,3.3514,3.3543,3.3575,3.359,3.3605,3.3642,3.3628,3.3646,3.363,3.3624,3.3668,3.367,3.369,3.3702,3.3686,3.3754,3.374,3.3713,3.367,3.3745,3.3773,3.3785,3.3629,3.3628,3.3627,3.3626,0,0,3.3632,3.3638,3.365,3.3657,3.3664,3.3686,3.3722,3.3742,3.3758,3.377,3.3799,3.3834,3.381,3.382,3.3805,3.3833,3.3905,3.3803,3.3802,3.3822,3.3981,3.4001,3.4014,3.3889,3.3891,3.3893,3.398,0,3.3715,3.3777,3.3761,3.3823,3.385,3.3818,3.385,3.3858,3.3854,3.3876,3.3871,3.3897,3.3862,3.3868,3.3895,3.3891,3.3936,3.3884,3.3917,3.3918,3.3915,3.4029,3.405,3.4132,3.3991,3.3993,3.3994,0,3.382,3.3836,3.3901,3.3905,3.3916,3.3945,3.3963,3.3985,3.3994,3.3989,3.4001,3.3982,3.4018,3.3975,3.4025,3.399,3.4003,3.4003,3.4006,3.4008,3.396,3.4034,3.4158,3.417,3.4011,3.401,3.4009,0,3.39,3.3938,3.3982,3.3989,3.3995,3.4016,3.402,3.4027,3.4041,3.4057,3.4066,3.4086,3.4097,3.4113,3.41,3.407,3.4153,3.4108,3.415,3.415,3.4168,3.4167,3.4295,3.4177,3.4176,3.4176,3.4176,0,3.3994,3.4035,3.4019,3.4046,3.4091,3.4073,3.4118,3.4118,3.4125,3.4151,3.4125,3.4151,3.4132,3.4156,3.4146,3.4189,3.4194,3.4192,3.4188,3.4194,3.4194,3.4201,3.4195,3.4179,3.4179,3.4178,3.4178,0,3.409,3.4081,3.4127,3.413,3.4131,3.4165,3.4167,3.4192,3.4187,3.4222,3.4229,3.422,3.4248,3.4237,3.4265,3.4258,3.4314,3.4304,3.4311,3.4309,3.435,3.4347,3.4487,3.4505,3.4376,3.4377,3.4378,0,3.4151,3.4182,3.4188,3.4204,3.421,3.4237,3.4251,3.4235,3.4251,3.4265,3.4289,3.4315,3.4334,3.4379,3.4376,3.4398,3.4388,3.4436,3.4391,3.4396,3.4389,3.4387,3.439,3.4444,3.4446,3.4447,3.4448,0,3.4259,3.4253,3.4275,3.4297,3.4315,3.4331,3.4344,3.4359,3.4344,3.4364,3.4392,3.4407,3.4437,3.4463,3.4483,3.4487,3.4465,3.4463,3.4473,3.4479,3.4482,3.4481,3.4336,3.4459,3.4458,3.4457,3.4457,3.4456,3.4339,3.4366,3.4375,3.4401,3.441,3.4423,3.4448,3.4446,3.447,3.4493,3.4483,3.4516,3.4525,3.455,3.4557,3.4583,3.4564,3.458,3.4583,3.4587,3.4593,3.4479,3.4587,3.4586,3.4586,3.4586,3.4585,0,3.4446,3.4451,3.4475,3.4495,3.4516,3.4495,3.451,3.4528,3.4558,3.4569,3.4589,3.4622,3.4648,3.4647,3.4671,3.4692,3.4683,3.4698,3.4696,3.4698,3.4608,3.4597,3.4706,3.4706,3.4705,3.4705,3.4705,3.4705,3.4504,3.4548,3.4544,3.4593,3.4597,3.463,3.464,3.4653,3.4662,3.47,3.4721,3.4721,3.4728,3.4752,3.4775,3.4774,3.4784,3.4804,3.48,3.4716,3.4704,3.4693,3.4682,3.4806,3.4806,3.4887,3.4888,3.4888]},{"header":{"parameterUnit":"m.s-1","parameterCategory":1,"la1":30.2991,"la2":30.254,"lo1":-89.0895,"lo2":-89.0444,"dy":0.0017,"dx":0.0017,"nx":28,"ny":28,"refTime":"2025-04-06T09:00:00:Z","depth":0,"parameterNumber":3,"parameterNumberName":"V-component_of_WINDS"},"data":[0,0,0,0,0,0,0,0,0,0,0,0,0,0,0,0,0,0,0,0,0,0,0,0,0,0,0,0,0,0,0,0,0,0,0,0,0,0,0,0,0,0,0,0,0,0,0,0,0,0,0,0,0,0,0,0,0,0,-5.8949,-5.895,0,-5.9084,-5.9086,-5.9087,-5.9075,-5.9072,-5.907,-5.9068,-5.9202,-5.9207,-5.9213,0,0,0,0,0,0,0,0,0,0,0,0,0,-5.8675,-5.868,-5.8949,-5.895,-5.8952,-5.9084,-5.9086,-5.9088,-5.9075,-5.9072,-5.907,-5.9067,-5.92,-5.9207,-5.9213,0,0,0,0,0,0,0,0,0,0,0,0,0,-5.88,-5.8682,-5.8948,-5.8962,-5.8964,-5.9084,-5.9086,-5.9088,-5.9075,-5.9072,-5.9069,-5.9066,-5.9198,-5.9206,-5.9214,-5.9327,0,0,-5.9239,-5.9243,0,0,0,0,0,0,0,0,-5.8793,-5.881,-5.8958,-5.8961,-5.8964,-5.9059,-5.9038,-5.9168,-5.9076,-5.9033,-5.9068,-5.9065,-5.9157,-5.9168,-5.92,-5.9334,-5.9339,-5.924,-5.9245,-5.9249,-5.9251,0,0,0,0,0,0,0,-5.8784,-5.8804,-5.9002,-5.896,-5.8964,-5.896,-5.8974,-5.9063,-5.911,-5.9037,-5.9036,-5.9052,-5.9158,-5.9192,-5.9203,-5.9341,-5.924,-5.9247,-5.9252,-5.9255,-5.9575,-5.9578,0,0,0,0,0,0,-5.8773,-5.8797,-5.8998,-5.9006,-5.8869,-5.8967,-5.8983,-5.9032,-5.911,-5.9119,-5.9055,-5.9051,-5.918,-5.9194,-5.9208,-5.9346,-5.9249,-5.9256,-5.9261,-5.9571,-5.9576,-5.9579,0,0,0,0,0,0,-5.8767,-5.8791,-5.8992,-5.8902,-5.8927,-5.8975,-5.903,-5.9036,-5.9071,-5.9124,-5.9132,-5.9082,-5.9178,-5.9196,-5.9298,-5.935,-5.926,-5.9267,-5.9567,-5.9573,-5.9578,-5.9622,0,0,0,0,0,0,-5.876,-5.8789,-5.8834,-5.8903,-5.8932,-5.9082,-5.9033,-5.9041,-5.9086,-5.9082,-5.9151,-5.9159,-5.9177,-5.9286,-5.9306,-5.936,-5.9274,-5.9563,-5.957,-5.9576,-5.9616,-5.9628,-5.9639,0,0,0,0,0,-5.875,-5.8839,-5.8836,-5.886,-5.8989,-5.9085,-5.9101,-5.9121,-5.909,-5.9134,-5.9168,-5.9157,-5.9342,-5.9297,-5.9319,-5.9376,-5.9559,-5.9568,-5.9575,-5.9611,-5.9626,-5.9638,0,0,0,0,0,0,-5.8773,-5.8849,-5.8846,-5.8961,-5.9017,-5.9082,-5.9139,-5.9136,-5.9201,-5.9194,-5.9215,-5.9231,-5.9333,-5.9365,-5.9314,-5.949,-5.9446,-5.9459,-5.9465,-5.948,-5.9491,-5.9481,-5.9281,0,0,0,0,0,-5.8792,-5.8865,-5.8927,-5.9022,-5.9051,-5.909,-5.9133,-5.9144,-5.9202,-5.9225,-5.9266,-5.9322,-5.9392,-5.9438,-5.9506,-5.9621,-5.9636,-5.9671,-5.9683,-5.9692,-5.9702,-5.9766,-5.9782,-5.9606,-5.9606,-5.9605,0,0,-5.883,-5.8881,-5.8926,-5.9028,-5.9073,-5.9147,-5.911,-5.919,-5.9245,-5.9236,-5.9335,-5.9368,-5.9431,-5.9541,-5.9591,-5.957,-5.9755,-5.9702,-5.9709,-5.9714,-5.9776,-5.9792,-5.9807,-5.9611,-5.961,-5.9609,0,0,-5.8939,-5.8985,-5.907,-5.9116,-5.9185,-5.9211,-5.9232,-5.9299,-5.9321,-5.9421,-5.9417,-5.9481,-5.9602,-5.9648,-5.9687,-5.9815,-5.9807,-5.9836,-5.9894,-5.9956,-5.997,-5.9982,-6.0027,-6.0044,-5.9847,-5.9847,-5.9847,0,-5.8978,-5.9091,-5.9113,-5.9195,-5.924,-5.9238,-5.9323,-5.9367,-5.9453,-5.9484,-5.946,-5.9613,-5.9655,-5.9775,-5.9807,-5.9839,-5.9862,-5.9828,-5.9966,-5.9979,-5.9991,-6.0034,-6.0051,-5.985,-5.985,-5.9849,-5.9849,0,-5.9135,-5.9214,-5.9274,-5.936,-5.9412,-5.9495,-5.9529,-5.9578,-5.9585,-5.9613,-5.9716,-5.9767,-5.9845,-5.9875,-5.9881,-5.9996,-5.9981,-5.9962,-5.9918,-6.0011,-6.0052,-6.0068,-5.9854,-5.9853,-5.9852,-5.9852,0,0,-5.926,-5.936,-5.9381,-5.9421,-5.9497,-5.9558,-5.9641,-5.9719,-5.9761,-5.9822,-5.9891,-5.9994,-5.9978,-6.0022,-6.0034,-6.0088,-6.0186,-6.0062,-6.0064,-6.0082,-6.0315,-6.0329,-6.0347,-6.0182,-6.0185,-6.0187,-6.031,0,-5.9376,-5.9525,-5.9548,-5.9677,-5.975,-5.975,-5.9822,-5.9877,-5.9906,-5.9971,-6.0002,-6.0075,-6.0047,-6.0074,-6.0128,-6.0162,-6.0233,-6.0154,-6.0245,-6.0248,-6.0228,-6.0369,-6.0383,-6.0496,-6.0326,-6.0329,-6.0331,0,-5.9531,-5.9598,-5.9735,-5.9803,-5.9834,-5.9899,-5.9973,-6.0036,-6.0097,-6.0115,-6.0165,-6.0171,-6.0256,-6.021,-6.0326,-6.0272,-6.0311,-6.0334,-6.0339,-6.0347,-6.0294,-6.038,-6.0533,-6.0549,-6.0356,-6.0354,-6.0352,0,-5.9607,-5.9732,-5.983,-5.9864,-5.9946,-5.9991,-6.0027,-6.0086,-6.0132,-6.0197,-6.0227,-6.03,-6.034,-6.0396,-6.0421,-6.0385,-6.0536,-6.0491,-6.0551,-6.0551,-6.0582,-6.0579,-6.0742,-6.0609,-6.0608,-6.0608,-6.0608,0,-5.9734,-5.9818,-5.9866,-5.9927,-6.0021,-6.0046,-6.0138,-6.0173,-6.0225,-6.0292,-6.0296,-6.0358,-6.0388,-6.0454,-6.0474,-6.0567,-6.0585,-6.0601,-6.0605,-6.06,-6.0598,-6.0624,-6.0617,-6.0612,-6.0611,-6.0611,-6.061,0,-5.9834,-5.9871,-5.9978,-6.0048,-6.0067,-6.0133,-6.0192,-6.025,-6.028,-6.0364,-6.0385,-6.0431,-6.0509,-6.054,-6.0635,-6.0649,-6.0756,-6.0754,-6.0736,-6.0737,-6.0795,-6.0789,-6.0979,-6.1005,-6.0855,-6.0857,-6.0858,0,-5.9912,-5.9977,-6.0055,-6.01,-6.0138,-6.0212,-6.026,-6.0288,-6.0337,-6.0413,-6.0462,-6.0541,-6.0605,-6.073,-6.0771,-6.0844,-6.0843,-6.0905,-6.0854,-6.0847,-6.0843,-6.0839,-6.0845,-6.0914,-6.0915,-6.0916,-6.0917,0,-6.0046,-6.0061,-6.0131,-6.0207,-6.0265,-6.0326,-6.0385,-6.0422,-6.0459,-6.0514,-6.0595,-6.0645,-6.0744,-6.0822,-6.0897,-6.0933,-6.0931,-6.0934,-6.0951,-6.0946,-6.0932,-6.094,-6.0761,-6.0929,-6.0927,-6.0927,-6.0926,-6.0926,-6.0137,-6.0195,-6.0259,-6.0337,-6.0385,-6.0441,-6.0499,-6.0537,-6.0606,-6.069,-6.0702,-6.0789,-6.0849,-6.0951,-6.099,-6.1057,-6.1041,-6.1066,-6.1073,-6.1078,-6.1082,-6.0923,-6.1071,-6.1071,-6.107,-6.107,-6.107,0,-6.0271,-6.0313,-6.0384,-6.0468,-6.0529,-6.0525,-6.0591,-6.0641,-6.0718,-6.0776,-6.084,-6.0933,-6.1009,-6.1057,-6.1133,-6.1178,-6.1179,-6.1197,-6.1193,-6.1201,-6.1092,-6.1069,-6.1195,-6.1195,-6.1195,-6.1195,-6.1195,-6.1195,-6.0347,-6.0445,-6.0468,-6.059,-6.0631,-6.0718,-6.0756,-6.0807,-6.0853,-6.0958,-6.1022,-6.1053,-6.1107,-6.1187,-6.1256,-6.1268,-6.1296,-6.1315,-6.1325,-6.1222,-6.1209,-6.1197,-6.1175,-6.1321,-6.1321,-6.1428,-6.1429,-6.143]}]]